Location: Unspecified
(0.0000°N, 0.0000°E)
Time: 12:05:05
(UTC+00:00)

Hubble Space Telescope - Pass Details

Date: 07 December 2019
Orbit: 536 x 540 km, 28.5° (Epoch: 10 December)

Event Time Altitude Azimuth Distance (km) Brightness Sun altitude
Exits shadow 04:40:12 - 226° (SW) 2,332 3.8 -16.4°
Reaches altitude 10° 04:41:40 10° 220° (SW) 1,788 3.3 -16.0°
Maximum altitude 04:45:34 40° 150° (SSE) 799 2.1 -15.1°
Drops below altitude 10° 04:49:27 10° 80° (E) 1,783 4.3 -14.2°
Sets 04:51:48 0° 72° (ENE) 2,672 5.1 -13.7°
